Terminal Aerodrome Forecast
Issued by NWS

Home | Current Version | Previous Version | Graphics & Text | Print | Product List | Glossary On
Versions: 1 2 3 4 5 6 7 8 9 10 11 12 13 14 15 16 17 18 19 20 21 22 23 24 25
000
FTUS43 KABR 162100 AAA
TAFPIR
TAF AMD
KPIR 162112Z 1621/1718 01008KT P6SM OVC018
     FM170000 04005KT P6SM OVC010
     FM171500 10005KT P6SM OVC010=

USA.gov is the U.S. government's official web portal to all federal, state and local government web resources and services.